x

Buoy I01 - Eastern Maine Shelf (44034) Wave Buoy

12:04 - Thu 23rd Oct 2014 All times are EDT. -4 hours from GMT.

  • Sig Wave height 14.4ft
  • Peak Period 8s
  • Wind
    36mph, 45mph gusts
  • Sea Temp 55°f
  • Ar Temp 55°f
  • Sea Pressure 1006.5mb
  • Buoy I01 - Eastern Maine Shelf
  • Buoy I01 - Eastern Maine Shelf

More Historic Weather Station data

Upgrade to MSW Pro to gain access to the past 30 days of data for over 8000 Wavebouys and Weather Stations around the globe.

Join Pro

Comparision Forecast

View Surf forecast
   
Qui 10/23 12:04 14.5ft 8s 36 45 mph 1006.5mb 55f 55f
11:04 15.5ft 8s 36 45 mph 1007.1mb 55f 54f
10:04 13ft 8s 36 47 mph 1007.9mb 55f 54f
9:04 13.5ft 8s 36 45 mph 1008.1mb 55f 55f
8:04 12.5ft 8s 36 45 mph 1008.4mb 55f 55f
7:04 13ft 8s 34 43 mph 1009mb 55f 54f
6:04 12ft 8s 36 43 mph 1009.3mb 55f 54f
5:04  -   -  38 45 mph 1009.6mb - 54f
4:04 13ft 8s 29 40 mph 1010.5mb 55f 54f
3:04 11.5ft 8s 36 43 mph 1011.2mb 55f 53f
2:04 13.5ft 8s 36 45 mph 1012mb 55f 54f
1:04 11ft 8s 34 40 mph 1012.8mb 54f 53f
12:04 13.5ft 8s 34 43 mph 1013.3mb 54f 52f
Qua 10/22 11:04  -   -  36 45 mph 1013.9mb 55f 51f
10:04 13ft 8s 36 45 mph - 55f 51f
9:04 13.5ft 8s 36 45 mph 1014.8mb 55f 51f
8:04 14ft 8s 34 43 mph 1016.1mb 55f 51f
7:04 14.5ft 8s 34 45 mph 1016.9mb 55f 51f
6:04 15ft 8s 38 47 mph 1016.9mb 55f 51f
5:04 16.5ft 8s 38 47 mph 1016.9mb 55f 51f
4:04 15.5ft 8s 40 49 mph 1016.7mb 55f 51f
3:04 14ft 8s 38 47 mph 1016.1mb 55f 51f
2:04 12ft 8s 38 47 mph 1015.9mb 55f 51f
1:04 13.5ft 8s 36 45 mph 1016.2mb 55f 51f
12:04 11ft 8s 34 40 mph 1016.9mb 55f 53f
11:04 10ft 8s 34 40 mph 1017.4mb 55f 53f
10:04 10ft 8s 31 40 mph 1017.8mb 55f 53f
9:04 9ft 6s 31 40 mph 1018.3mb 55f 52f
8:04 9ft 6s 31 36 mph 1018.4mb 56f 53f
7:04 10ft 6s 29 38 mph 1018.3mb 56f 53f
6:04 10ft 6s 29 34 mph 1018.4mb 56f 53f
5:04 8.5ft 6s 31 38 mph 1018.2mb 56f 54f
4:04 7ft 6s 29 43 mph 1017.7mb 56f 54f
3:04 6.5ft 6s 27 34 mph 1017.7mb 56f 55f
2:04 7ft 5s 27 31 mph 1017.9mb 56f 54f
1:04 6.5ft 5s 27 31 mph 1018.2mb 56f 54f
12:04 7ft 5s 25 31 mph 1018.3mb 56f 54f
Ter 10/21 11:04 5ft 5s 27 31 mph 1018.3mb 56f 54f
10:04 5ft 6s 25 29 mph 1018mb 56f 54f
9:04 4.5ft 5s 22 27 mph 1017.8mb 56f 54f
8:04 4.5ft 5s 22 27 mph 1017.7mb 56f 55f
7:04 3.5ft 4s 20 25 mph 1017.4mb 55f 56f
6:04 3ft 4s 16 20 mph 1017.4mb 55f 55f
5:04 2.5ft 4s 16 20 mph 1017.2mb 55f 56f
4:04 2.5ft 5s 18 20 mph 1017.1mb 55f 55f
3:04 2.5ft 8s 13 18 mph 1016.7mb 55f 55f
2:04 2.5ft 5s 11 13 mph 1016.9mb 55f 56f
1:04 2.5ft 5s 9 11 mph 1017.3mb 55f 56f
12:04 3ft 6s 7 9 mph 1017.7mb 55f 56f
11:04 3.5ft 6s 11 13 mph 1018.1mb 55f 56f
10:04 3ft 6s 9 11 mph 1017.6mb 55f 55f
9:04 2.5ft 5s 13 16 mph 1017.1mb 55f 53f
8:04 2.5ft 5s 13
mph
1016.9mb 55f 53f
7:04 2.5ft 8s 7 9 mph 1016.4mb 55f 54f
6:04 2.5ft 5s 4 7 mph 1016.6mb 54f 53f
5:04 2.5ft 5s 2
mph
1016.4mb 54f 53f
4:04 2.5ft 5s 4 7 mph 1016mb 54f 54f
3:04 2.5ft 6s 9 11 mph 1015.9mb 55f 54f
2:04 3ft 5s 11
mph
1015.6mb 55f 54f
1:04 4.5ft 11s 13 16 mph 1015.3mb 55f 54f
12:04 3.5ft 6s 13 16 mph 1015mb 55f 54f
Seg 10/20 11:04 3.5ft 6s 13 18 mph 1014.5mb 55f 54f
10:04 3.5ft 4s 16 18 mph 1014.2mb 55f 53f
9:04 3.5ft 4s 16 18 mph 1013.9mb 55f 52f
8:04 3.5ft 5s 18 20 mph 1013.9mb 56f 52f
7:04 3.5ft 5s 18 22 mph 1013.5mb 55f 51f
6:04 4.5ft 5s 18 22 mph 1013.1mb 55f 50f
5:04 3.5ft 5s 18 20 mph 1012.6mb 55f 50f
4:04 3.5ft 5s 18 22 mph 1012.5mb 55f 49f
3:04 4ft 5s 18 22 mph 1012.5mb 55f 48f
2:04 3ft 5s 20 25 mph 1012.4mb 56f 47f
1:04 3ft 4s 16 20 mph 1012.5mb 56f 46f
12:04 3ft 4s 18 20 mph 1013mb 56f 45f
11:04 3ft 4s 16 20 mph 1013.3mb 56f 45f
10:04 3.5ft 5s 18 22 mph 1013.2mb 56f 45f
9:04 3.5ft 4s 22 29 mph 1012.7mb 56f 45f
8:04 3.5ft 4s 20 29 mph 1011.9mb 56f 45f
7:04 3.5ft 4s 25 29 mph 1011.1mb 56f 45f
6:04 3.5ft 4s 22 29 mph 1010.7mb 56f 45f
5:04 3.5ft 4s 25 29 mph 1010.4mb 55f 44f
4:04 3.5ft 4s 25 31 mph 1009.6mb 55f 45f
3:04 4ft 4s 27 36 mph 1008.8mb 56f 46f
2:04 3.5ft 4s 25 31 mph 1008.5mb 56f 46f
1:04 3.5ft 3s 25 31 mph 1008.1mb 56f 47f
12:04 3ft 4s 20 25 mph 1007.7mb 56f 47f
Dom 10/19 11:04  -   -  22 27 mph 1007.4mb 56f 47f
10:04 2.5ft 3s 18 22 mph 1007.4mb 56f 47f
9:04 3ft 4s 20 25 mph 1007.5mb 56f 47f
8:04 3.5ft 4s 20 25 mph 1006.9mb 56f 47f
7:04 3.5ft 4s 22 29 mph 1006.8mb 56f 47f
6:04 3ft 4s 25 29 mph 1006.2mb 57f 49f